Flag for Canada Weather past 2 weeks in Quesnel, British Columbia, Canada

Now
61 °F

Mostly cloudy.


Feels Like: 61 °F
Forecast: 53 / 80 °F
Wind: 8 mph from Southeast

Location: Quesnel Airport

Current Time: Jun 30, 2015 at 10:26:56 PM

Latest Report: Jun 30, 2015 at 10:00 PM


Visibility: 9 mi

Pressure: 30.15 "Hg

Humidity: 94%

Dew point: 59 °F

Location of QuesnelLocation

Historic Weather in Quesnel — Graph

°F

Quesnel temperature yesterday

Maximum temperature yesterday: 81 °F (at 3:00 PM)
Minimum temperature yesterday: 63 °F (at 6:00 AM)
Average temperature yesterday: 70 °F

Past Weeks' High & Low Weather Summary

 TemperatureHumidityPressure
High90 °F (Jun 28, 4:00 PM)100% (Jun 19, 3:00 AM)30.23 "Hg (Jun 19, 3:00 AM)
Low41 °F (Jun 21, 4:00 AM)21% (Jun 26, 6:00 PM)29.80 "Hg (Jun 18, 5:00 PM)
Average63 °F68%30.03 "Hg
* Reported Jun 15 8:00 PM — Jun 30 8:02 PM, Quesnel, Weather by CustomWeather, © 2015

Note: Actual official high and low records may vary slightly from our data, if they occured in-between our weather recording intervals... More about our weather records

Advertising

Quesnel weather history for previous 24 hours

 ConditionsComfort  
Time TempWeatherWind HumidityBarometerVisibility
8:02 PM
Tue, Jun 30
63 °FBroken clouds.8 mph94%30.12 "Hg9 mi
7:03 PM64 °FLight rain. Mostly cloudy.10 mph83%30.13 "Hg9 mi
6:00 PM68 °FLight rain. Cloudy.5 mph73%30.12 "Hg9 mi
5:58 PM68 °FLight rain. Mostly cloudy.5 mph73%30.12 "Hg9 mi
5:00 PM68 °FSunny.2 mph69%30.11 "Hg9 mi
4:00 PM64 °FLight rain. Scattered clouds.3 mph83%30.11 "Hg9 mi
3:00 PM66 °FOvercast.6 mph73%30.12 "Hg9 mi
2:00 PM68 °FBroken clouds.12 mph73%30.11 "Hg9 mi
1:57 PM68 °FBroken clouds.14 mph78%30.11 "Hg9 mi
1:00 PM72 °FPartly sunny.8 mph53%30.10 "Hg9 mi
12:57 PM73 °FPartly sunny.8 mph50%30.10 "Hg9 mi
12:00 PM75 °FSunny.7 mph57%30.06 "Hg9 mi
11:00 AM73 °FSunny.5 mph50%30.08 "Hg9 mi
10:00 AM70 °FSunny.2 mph78%30.09 "Hg9 mi
9:00 AM64 °FPassing clouds.5 mph94%30.10 "Hg9 mi
8:00 AM63 °FLow clouds.2 mph100%30.10 "Hg9 mi
7:01 AM61 °FLow clouds.3 mph100%30.10 "Hg7 mi
6:04 AM59 °FFog.No wind100%30.09 "Hg6 mi
5:00 AM59 °FFog.2 mph100%30.07 "Hg0 mi
4:00 AM57 °FFog.No wind94%30.06 "Hg4 mi
3:02 AM59 °FFog.2 mph94%30.04 "Hg3 mi
2:00 AM61 °FFog.No wind100%30.03 "Hg4 mi
1:53 AM61 °FFog.No wind100%30.04 "Hg5 mi
1:00 AM63 °FMostly cloudy.No wind100%30.03 "Hg9 mi
12:00 AM64 °FOvercast.No wind94%30.03 "Hg9 mi
11:00 PM
Mon, Jun 29
64 °FLight rain. Overcast.2 mph94%30.02 "Hg9 mi
10:00 PM66 °FOvercast.5 mph88%30.01 "Hg9 mi
Weather by CustomWeather, © 2015

See weather overviewHow to use our weather pages